Location: Newark
(42.1399°N, 3.1179°E)
Time: 18:15:13
(UTC+00:00)

OTV 5 (USA 277) - Visible Passes

Search period start: 20 August 2019 00:00
Search period end: 30 August 2019 00:00
Orbit: 305 x 329 km, 54.5° (Epoch: 11 August)

Date Brightness Start Highest point End Pass type
(mag) Time Alt. Az. Time Alt. Az. Time Alt. Az.
20 Aug ? 03:44:11 10° NNW 03:46:33 28° NNE 03:48:55 10° E visible
21 Aug ? 02:25:53 11° N 02:26:28 12° NNE 02:27:33 10° NE visible
21 Aug ? 03:58:33 10° NW 04:01:11 77° NE 04:03:50 10° SE visible
22 Aug ? 02:41:20 20° NNE 02:41:20 20° NNE 02:43:22 10° E visible
22 Aug ? 04:13:15 10° WNW 04:15:40 32° SW 04:18:05 10° SSE visible
23 Aug ? 02:57:33 20° ESE 02:57:33 20° ESE 02:58:34 10° ESE visible
23 Aug ? 04:28:56 10° WSW 04:30:02 12° SW 04:31:06 10° SSW visible
23 Aug ? 19:14:57 10° SSE 19:16:19 13° SE 19:17:16 11° ESE visible
23 Aug ? 20:47:50 10° WSW 20:48:17 13° WSW 20:48:17 13° WSW visible
24 Aug ? 19:28:13 10° SSW 19:30:41 36° SE 19:33:07 10° ENE visible
24 Aug ? 21:03:05 10° WNW 21:04:05 16° WNW 21:04:05 16° WNW visible
25 Aug ? 19:42:32 10° WSW 19:45:11 69° NW 19:47:49 10° NE visible
25 Aug ? 21:19:00 10° NW 21:19:13 10° NW 21:19:13 10° NW visible
26 Aug ? 19:57:29 10° W 19:59:50 26° NNW 20:02:09 10° NNE visible
27 Aug ? 20:13:02 10° WNW 20:14:37 14° NNW 20:16:11 10° NNE visible
29 Aug ? 19:07:17 10° WNW 19:09:19 19° NNW 19:11:20 10° NNE visible
